| time (UTC) | temp F | wind direction | speed MPH | gust MPH | rain 1hr in | rain 24hr in | rain mn in | humidity % | barometer mb |
| 20260906232548 | 62 | 336 | 10.0 | 17.0 | 0.00 | 1.44 | 1.15 | 80 | 1017.1 |
| 20260906232045 | 61 | 329 | 11.0 | 18.0 | 0.00 | 1.44 | 1.15 | 80 | 1017.1 |
| 20260906231553 | 62 | 339 | 11.0 | 18.0 | 0.00 | 1.44 | 1.15 | 79 | 1017.2 |
| 20260906231044 | 62 | 324 | 8.0 | 14.0 | 0.00 | 1.44 | 1.15 | 80 | 1017.2 |
| 20260906230545 | 62 | 323 | 9.0 | 14.0 | 0.00 | 1.44 | 1.15 | 78 | 1017.2 |
| 20260906230045 | 62 | 324 | 8.0 | 14.0 | 0.00 | 1.44 | 1.15 | 77 | 1017.2 |
| 20260906225544 | 63 | 342 | 9.0 | 15.0 | 0.00 | 1.44 | 1.15 | 76 | 1017.3 |
| 20260906225047 | 63 | 325 | 11.0 | 15.0 | 0.00 | 1.44 | 1.15 | 76 | 1017.2 |
| 20260906224543 | 63 | 27 | 9.0 | 14.0 | 0.00 | 1.44 | 1.15 | 77 | 1017.0 |
| 20260906224043 | 63 | 344 | 9.0 | 13.0 | 0.00 | 1.44 | 1.15 | 77 | 1017.0 |
| 20260906223541 | 63 | 348 | 10.0 | 14.0 | 0.00 | 1.44 | 1.15 | 76 | 1017.2 |
| 20260906223041 | 62 | 333 | 8.0 | 14.0 | 0.00 | 1.44 | 1.15 | 76 | 1017.2 |
| 20260906222542 | 62 | 355 | 7.0 | 13.0 | 0.00 | 1.44 | 1.15 | 76 | 1017.3 |
| 20260906222043 | 63 | 11 | 8.0 | 13.0 | 0.00 | 1.44 | 1.15 | 77 | 1017.2 |
| 20260906221544 | 62 | 340 | 7.0 | 13.0 | 0.00 | 1.44 | 1.15 | 78 | 1017.3 |
| 20260906221037 | 62 | 360 | 7.0 | 11.0 | 0.00 | 1.44 | 1.15 | 78 | 1017.5 |
| 20260906220537 | 61 | 360 | 8.0 | 11.0 | 0.00 | 1.44 | 1.15 | 78 | 1017.6 |
| 20260906220113 | 61 | 5 | 6.0 | 11.0 | 0.00 | 1.44 | 1.15 | 78 | 1017.7 |
| 20260906215534 | 61 | 360 | 6.0 | 11.0 | 0.00 | 1.44 | 1.15 | 78 | 1017.7 |
| 20260906215035 | 61 | 10 | 7.0 | 11.0 | 0.00 | 1.44 | 1.15 | 78 | 1017.8 |
| 20260906214538 | 61 | 334 | 5.0 | 9.0 | 0.00 | 1.44 | 1.15 | 79 | 1017.8 |
| 20260906214034 | 61 | 306 | 5.0 | 10.0 | 0.00 | 1.44 | 1.15 | 79 | 1017.7 |
| 20260906213533 | 61 | 355 | 5.0 | 10.0 | 0.00 | 1.44 | 1.15 | 79 | 1017.7 |
| 20260906213036 | 61 | 333 | 7.0 | 10.0 | 0.00 | 1.44 | 1.15 | 79 | 1017.7 |
| 20260906212532 | 61 | 349 | 5.0 | 12.0 | 0.00 | 1.44 | 1.15 | 79 | 1017.7 |
| 20260906212032 | 60 | 5 | 8.0 | 12.0 | 0.00 | 1.44 | 1.15 | 78 | 1017.6 |
| 20260906211538 | 60 | 324 | 6.0 | 12.0 | 0.00 | 1.44 | 1.15 | 79 | 1017.7 |
| 20260906211033 | 60 | 338 | 7.0 | 12.0 | 0.00 | 1.44 | 1.15 | 79 | 1017.7 |
| 20260906210534 | 60 | 333 | 7.0 | 14.0 | 0.00 | 1.44 | 1.15 | 79 | 1017.6 |
| 20260906210051 | 60 | 326 | 7.0 | 14.0 | 0.00 | 1.44 | 1.15 | 80 | 1017.7 |
| 20260906205531 | 60 | 322 | 8.0 | 13.0 | 0.00 | 1.44 | 1.15 | 79 | 1017.6 |
| 20260906205028 | 60 | 355 | 6.0 | 12.0 | 0.00 | 1.44 | 1.15 | 79 | 1017.6 |
| 20260906204530 | 60 | 342 | 6.0 | 13.0 | 0.00 | 1.44 | 1.15 | 79 | 1017.7 |
| 20260906204027 | 60 | 348 | 9.0 | 13.0 | 0.00 | 1.44 | 1.15 | 78 | 1017.6 |
| 20260906203526 | 59 | 338 | 8.0 | 14.0 | 0.00 | 1.44 | 1.15 | 80 | 1017.7 |
| 20260906202524 | 59 | 348 | 7.0 | 12.0 | 0.00 | 1.44 | 1.15 | 81 | 1017.6 |
| 20260906202024 | 59 | 341 | 6.0 | 9.0 | 0.00 | 1.44 | 1.15 | 82 | 1017.7 |
| 20260906201523 | 58 | 12 | 5.0 | 12.0 | 0.00 | 1.44 | 1.15 | 82 | 1017.7 |
| 20260906201024 | 58 | 328 | 7.0 | 12.0 | 0.00 | 1.44 | 1.15 | 82 | 1017.7 |
| 20260906200526 | 58 | 302 | 6.0 | 12.0 | 0.00 | 1.44 | 1.15 | 81 | 1017.7 |
| 20260906200035 | 58 | 346 | 6.0 | 11.0 | 0.00 | 1.44 | 1.15 | 80 | 1017.8 |
| 20260906195521 | 58 | 355 | 6.0 | 11.0 | 0.00 | 1.44 | 1.15 | 81 | 1017.8 |
| 20260906195021 | 58 | 330 | 5.0 | 11.0 | 0.00 | 1.44 | 1.15 | 81 | 1017.9 |
| 20260906194520 | 58 | 327 | 5.0 | 11.0 | 0.00 | 1.44 | 1.15 | 80 | 1018.0 |
| 20260906194019 | 58 | 355 | 7.0 | 11.0 | 0.00 | 1.44 | 1.15 | 81 | 1018.0 |
| 20260906193518 | 58 | 324 | 7.0 | 11.0 | 0.00 | 1.44 | 1.15 | 80 | 1018.0 |
| 20260906193018 | 58 | 5 | 7.0 | 11.0 | 0.00 | 1.44 | 1.15 | 80 | 1018.0 |
| 20260906192517 | 58 | 330 | 5.0 | 9.0 | 0.00 | 1.44 | 1.15 | 81 | 1018.1 |
| 20260906192016 | 58 | 336 | 7.0 | 10.0 | 0.00 | 1.44 | 1.15 | 82 | 1018.1 |
| 20260906191517 | 58 | 317 | 6.0 | 10.0 | 0.00 | 1.44 | 1.15 | 82 | 1018.2 |
| 20260906191016 | 57 | 345 | 5.0 | 9.0 | 0.00 | 1.44 | 1.15 | 82 | 1018.3 |
| 20260906190516 | 57 | 336 | 6.0 | 9.0 | 0.00 | 1.44 | 1.15 | 82 | 1018.3 |
| 20260906190016 | 57 | 343 | 4.0 | 8.0 | 0.00 | 1.44 | 1.15 | 82 | 1018.5 |
| 20260906185515 | 57 | 327 | 4.0 | 10.0 | 0.00 | 1.44 | 1.15 | 82 | 1018.5 |
| 20260906185015 | 57 | 341 | 5.0 | 10.0 | 0.00 | 1.44 | 1.15 | 81 | 1018.4 |
| 20260906184515 | 57 | 329 | 6.0 | 10.0 | 0.00 | 1.44 | 1.15 | 82 | 1018.4 |
| 20260906184014 | 57 | 328 | 5.0 | 9.0 | 0.00 | 1.44 | 1.15 | 83 | 1018.5 |
| 20260906183520 | 57 | 337 | 5.0 | 8.0 | 0.00 | 1.44 | 1.15 | 83 | 1018.7 |
| 20260906183027 | 57 | 315 | 2.0 | 9.0 | 0.00 | 1.44 | 1.15 | 83 | 1018.8 |
| 20260906182517 | 57 | 13 | 4.0 | 10.0 | 0.00 | 1.44 | 1.15 | 83 | 1018.8 |
| 20260906182014 | 57 | 351 | 5.0 | 11.0 | 0.00 | 1.44 | 1.15 | 83 | 1018.7 |
| 20260906181514 | 57 | 336 | 8.0 | 11.0 | 0.00 | 1.44 | 1.15 | 83 | 1018.5 |
| 20260906181013 | 57 | 350 | 6.0 | 13.0 | 0.00 | 1.44 | 1.15 | 83 | 1018.5 |
| 20260906180515 | 57 | 11 | 9.0 | 15.0 | 0.00 | 1.44 | 1.15 | 82 | 1018.5 |
| 20260906180027 | 57 | 23 | 10.0 | 16.0 | 0.00 | 1.44 | 1.15 | 82 | 1018.5 |
| 20260906175515 | 57 | 5 | 10.0 | 16.0 | 0.00 | 1.44 | 1.15 | 82 | 1018.2 |
| 20260906175016 | 57 | 340 | 10.0 | 15.0 | 0.00 | 1.44 | 1.15 | 83 | 1018.3 |
| 20260906174520 | 57 | 38 | 10.0 | 17.0 | 0.00 | 1.44 | 1.15 | 82 | 1018.5 |
| 20260906174013 | 57 | 321 | 11.0 | 16.0 | 0.00 | 1.44 | 1.15 | 82 | 1018.5 |
| 20260906173511 | 58 | 28 | 10.0 | 16.0 | 0.00 | 1.44 | 1.15 | 84 | 1018.7 |
| 20260906173016 | 58 | 345 | 12.0 | 19.0 | 0.00 | 1.44 | 1.15 | 85 | 1018.5 |
| 20260906172509 | 57 | 18 | 13.0 | 22.0 | 0.00 | 1.44 | 1.15 | 86 | 1018.1 |
| 20260906172008 | 57 | 25 | 12.0 | 22.0 | 0.00 | 1.44 | 1.15 | 86 | 1018.1 |
| 20260906171507 | 57 | 12 | 10.0 | 17.0 | 0.00 | 1.44 | 1.15 | 88 | 1018.5 |
| 20260906171007 | 56 | 28 | 10.0 | 17.0 | 0.00 | 1.44 | 1.15 | 88 | 1018.9 |
| 20260906170505 | 56 | 13 | 9.0 | 19.0 | 0.00 | 1.44 | 1.15 | 90 | 1019.0 |
| 20260906170004 | 56 | 26 | 12.0 | 19.0 | 0.00 | 1.44 | 1.15 | 89 | 1019.0 |
| 20260906165505 | 56 | 14 | 11.0 | 17.0 | 0.00 | 1.44 | 1.15 | 90 | 1018.9 |
| 20260906165007 | 56 | 25 | 11.0 | 16.0 | 0.00 | 1.44 | 1.15 | 89 | 1019.2 |
| 20260906164503 | 55 | 22 | 9.0 | 17.0 | 0.00 | 1.44 | 1.15 | 89 | 1019.1 |
| 20260906164003 | 55 | 42 | 10.0 | 19.0 | 0.00 | 1.44 | 1.15 | 90 | 1019.0 |
| 20260906163501 | 55 | 30 | 11.0 | 19.0 | 0.00 | 1.44 | 1.15 | 91 | 1018.8 |
| 20260906163100 | 55 | 38 | 11.0 | 18.0 | 0.00 | 1.44 | 1.15 | 92 | 1018.8 |
| 20260906162600 | 55 | 19 | 11.0 | 18.0 | 0.00 | 1.44 | 1.15 | 92 | 1018.7 |
| 20260906162059 | 55 | 39 | 10.0 | 16.0 | 0.00 | 1.44 | 1.15 | 92 | 1018.7 |
| 20260906161604 | 55 | 355 | 11.0 | 16.0 | 0.02 | 1.44 | 1.15 | 92 | 1018.4 |
| 20260906161059 | 55 | 360 | 11.0 | 16.0 | 0.03 | 1.44 | 1.15 | 92 | 1018.4 |
| 20260906160557 | 55 | 355 | 8.0 | 11.0 | 0.03 | 1.44 | 1.15 | 91 | 1019.2 |
| 20260906160057 | 54 | 5 | 4.0 | 7.0 | 0.03 | 1.44 | 1.15 | 92 | 1020.0 |
| 20260906155554 | 54 | 55 | 2.0 | 9.0 | 0.03 | 1.47 | 1.15 | 91 | 1020.5 |
| 20260906155054 | 54 | 222 | 2.0 | 6.0 | 0.03 | 1.47 | 1.15 | 91 | 1020.8 |
| 20260906154554 | 54 | 36 | 0.0 | 7.0 | 0.03 | 1.47 | 1.15 | 91 | 1020.8 |
| 20260906154053 | 54 | 36 | 3.0 | 7.0 | 0.03 | 1.47 | 1.15 | 91 | 1020.4 |
| 20260906153557 | 54 | 49 | 5.0 | 10.0 | 0.03 | 1.47 | 1.15 | 91 | 1019.8 |
| 20260906153056 | 54 | 42 | 4.0 | 11.0 | 0.03 | 1.47 | 1.15 | 90 | 1019.6 |
| 20260906152557 | 54 | 24 | 7.0 | 10.0 | 0.03 | 1.47 | 1.15 | 89 | 1019.5 |
| 20260906152053 | 54 | 42 | 2.0 | 9.0 | 0.03 | 1.47 | 1.15 | 89 | 1019.8 |
| 20260906151550 | 54 | 48 | 5.0 | 11.0 | 0.01 | 1.45 | 1.13 | 88 | 1019.8 |
| 20260906151049 | 54 | 344 | 7.0 | 12.0 | 0.00 | 1.44 | 1.12 | 88 | 1019.6 |
| 20260906150549 | 55 | 34 | 6.0 | 10.0 | 0.00 | 1.44 | 1.12 | 87 | 1019.8 |
| 20260906150058 | 55 | 17 | 6.0 | 11.0 | 0.00 | 1.44 | 1.12 | 86 | 1019.8 |
| 20260906145547 | 55 | 328 | 7.0 | 11.0 | 0.01 | 1.44 | 1.12 | 88 | 1019.7 |
| 20260906145048 | 54 | 309 | 6.0 | 9.0 | 0.02 | 1.44 | 1.12 | 91 | 1020.0 |
| 20260906144558 | 54 | 328 | 6.0 | 9.0 | 0.03 | 1.44 | 1.12 | 93 | 1020.0 |
| 20260906144045 | 53 | 305 | 5.0 | 9.0 | 0.03 | 1.44 | 1.12 | 94 | 1020.1 |
| 20260906143543 | 53 | 297 | 4.0 | 8.0 | 0.03 | 1.44 | 1.12 | 94 | 1020.2 |
| 20260906143043 | 53 | 284 | 5.0 | 10.0 | 0.05 | 1.44 | 1.12 | 94 | 1020.4 |
| 20260906142543 | 53 | 287 | 6.0 | 11.0 | 0.08 | 1.44 | 1.12 | 95 | 1020.5 |
| 20260906142045 | 53 | 284 | 7.0 | 11.0 | 0.09 | 1.44 | 1.12 | 95 | 1020.7 |
| 20260906141546 | 53 | 282 | 7.0 | 10.0 | 0.10 | 1.44 | 1.12 | 95 | 1020.9 |
| 20260906141044 | 53 | 286 | 6.0 | 10.0 | 0.12 | 1.44 | 1.12 | 95 | 1021.1 |
| 20260906140542 | 53 | 286 | 7.0 | 10.0 | 0.16 | 1.44 | 1.12 | 95 | 1020.9 |
| 20260906140042 | 53 | 258 | 4.0 | 7.0 | 0.17 | 1.44 | 1.12 | 95 | 1021.4 |
| 20260906135540 | 53 | 286 | 4.0 | 7.0 | 0.17 | 1.45 | 1.12 | 95 | 1021.3 |
| 20260906135040 | 53 | 246 | 3.0 | 5.0 | 0.19 | 1.44 | 1.11 | 95 | 1021.7 |
| 20260906134541 | 53 | 235 | 3.0 | 5.0 | 0.31 | 1.43 | 1.10 | 94 | 1021.9 |
| 20260906134039 | 53 | 212 | 1.0 | 3.0 | 0.36 | 1.43 | 1.10 | 94 | 1022.0 |
| 20260906133538 | 53 | 224 | 1.0 | 7.0 | 0.37 | 1.43 | 1.10 | 94 | 1022.0 |
| 20260906133038 | 53 | 284 | 3.0 | 8.0 | 0.35 | 1.41 | 1.08 | 95 | 1021.6 |
| 20260906132538 | 53 | 273 | 5.0 | 8.0 | 0.32 | 1.38 | 1.05 | 94 | 1021.5 |
| 20260906132039 | 53 | 228 | 2.0 | 5.0 | 0.31 | 1.37 | 1.04 | 94 | 1021.7 |
| 20260906131539 | 53 | 248 | 3.0 | 9.0 | 0.30 | 1.36 | 1.03 | 94 | 1021.7 |
| 20260906131037 | 53 | 270 | 5.0 | 9.0 | 0.27 | 1.33 | 1.00 | 94 | 1021.3 |
| 20260906130537 | 53 | 277 | 6.0 | 11.0 | 0.24 | 1.30 | 0.97 | 94 | 1021.3 |
| 20260906130045 | 53 | 282 | 7.0 | 13.0 | 0.23 | 1.29 | 0.96 | 94 | 1021.4 |
| 20260906125539 | 53 | 263 | 9.0 | 15.0 | 0.22 | 1.29 | 0.95 | 94 | 1021.2 |
| 20260906125040 | 53 | 264 | 11.0 | 15.0 | 0.18 | 1.25 | 0.91 | 94 | 1021.2 |
| 20260906124537 | 53 | 223 | 8.0 | 12.0 | 0.05 | 1.12 | 0.78 | 95 | 1021.6 |
| 20260906124039 | 53 | 250 | 9.0 | 12.0 | 0.02 | 1.08 | 0.74 | 95 | 1021.2 |
| 20260906123536 | 53 | 262 | 7.0 | 11.0 | 0.01 | 1.07 | 0.73 | 95 | 1020.5 |
| 20260906123037 | 53 | 311 | 7.0 | 13.0 | 0.01 | 1.07 | 0.73 | 95 | 1020.2 |
| 20260906122536 | 53 | 348 | 9.0 | 16.0 | 0.01 | 1.07 | 0.73 | 95 | 1019.9 |
| 20260906122036 | 53 | 322 | 10.0 | 16.0 | 0.03 | 1.07 | 0.73 | 95 | 1020.0 |
| 20260906121535 | 53 | 338 | 8.0 | 14.0 | 0.03 | 1.07 | 0.73 | 95 | 1020.5 |
| 20260906121035 | 52 | 335 | 8.0 | 14.0 | 0.06 | 1.07 | 0.73 | 95 | 1020.7 |
| 20260906120537 | 52 | 330 | 7.0 | 15.0 | 0.15 | 1.07 | 0.73 | 95 | 1020.7 |
| 20260906120046 | 52 | 340 | 9.0 | 16.0 | 0.32 | 1.07 | 0.73 | 95 | 1020.7 |
| 20260906115536 | 52 | 340 | 10.0 | 14.0 | 0.39 | 1.08 | 0.73 | 95 | 1020.7 |
| 20260906115034 | 52 | 349 | 9.0 | 13.0 | 0.39 | 1.08 | 0.73 | 95 | 1021.0 |
| 20260906114539 | 52 | 322 | 7.0 | 15.0 | 0.39 | 1.08 | 0.73 | 95 | 1021.4 |
| 20260906114034 | 52 | 333 | 7.0 | 15.0 | 0.38 | 1.07 | 0.72 | 95 | 1021.3 |
| 20260906113533 | 51 | 355 | 11.0 | 14.0 | 0.39 | 1.07 | 0.72 | 95 | 1021.2 |
| 20260906113133 | 51 | 13 | 9.0 | 12.0 | 0.39 | 1.07 | 0.72 | 95 | 1021.2 |
| 20260906112647 | 51 | 342 | 9.0 | 12.0 | 0.39 | 1.07 | 0.72 | 95 | 1021.4 |
| 20260906112031 | 52 | 309 | 9.0 | 15.0 | 0.37 | 1.05 | 0.70 | 95 | 1021.4 |
| 20260906111533 | 52 | 315 | 5.0 | 16.0 | 0.40 | 1.05 | 0.70 | 95 | 1021.6 |
| 20260906111030 | 52 | 292 | 12.0 | 26.0 | 0.36 | 1.01 | 0.66 | 95 | 1021.5 |
| 20260906110530 | 52 | 238 | 18.0 | 26.0 | 0.27 | 0.92 | 0.56 | 94 | 1022.6 |
| 20260906110039 | 53 | 221 | 17.0 | 25.0 | 0.05 | 0.70 | 0.35 | 94 | 1022.4 |
| 20260906105528 | 53 | 201 | 17.0 | 23.0 | 0.04 | 0.69 | 0.34 | 95 | 1022.2 |
| 20260906105028 | 53 | 248 | 9.0 | 15.0 | 0.04 | 0.69 | 0.34 | 95 | 1020.9 |
| 20260906104528 | 53 | 313 | 9.0 | 14.0 | 0.04 | 0.69 | 0.34 | 95 | 1019.7 |
| 20260906104027 | 53 | 327 | 11.0 | 16.0 | 0.04 | 0.69 | 0.34 | 95 | 1020.0 |
| 20260906103527 | 53 | 309 | 12.0 | 15.0 | 0.03 | 0.68 | 0.33 | 95 | 1020.3 |
| 20260906103026 | 53 | 317 | 10.0 | 14.0 | 0.03 | 0.68 | 0.33 | 95 | 1020.7 |
| 20260906102526 | 53 | 317 | 7.0 | 12.0 | 0.03 | 0.68 | 0.33 | 95 | 1020.7 |
| 20260906102026 | 53 | 310 | 8.0 | 13.0 | 0.03 | 0.68 | 0.33 | 95 | 1020.8 |
| 20260906101525 | 52 | 320 | 8.0 | 13.0 | 0.00 | 0.65 | 0.30 | 95 | 1021.1 |
| 20260906101025 | 52 | 346 | 7.0 | 12.0 | 0.00 | 0.65 | 0.30 | 95 | 1020.8 |
| 20260906100525 | 52 | 327 | 9.0 | 13.0 | 0.00 | 0.65 | 0.30 | 95 | 1020.5 |
| 20260906100024 | 52 | 321 | 6.0 | 11.0 | 0.00 | 0.65 | 0.30 | 95 | 1020.6 |
| 20260906095527 | 52 | 286 | 8.0 | 15.0 | 0.00 | 0.65 | 0.30 | 95 | 1020.8 |
| 20260906095024 | 52 | 294 | 9.0 | 15.0 | 0.00 | 0.65 | 0.30 | 95 | 1020.8 |
| 20260906094532 | 52 | 297 | 11.0 | 15.0 | 0.00 | 0.65 | 0.30 | 95 | 1020.7 |
| 20260906094023 | 52 | 310 | 11.0 | 15.0 | 0.00 | 0.65 | 0.30 | 95 | 1021.0 |
| 20260906093523 | 52 | 304 | 11.0 | 15.0 | 0.01 | 0.65 | 0.30 | 95 | 1020.9 |
| 20260906093022 | 52 | 332 | 9.0 | 15.0 | 0.01 | 0.65 | 0.30 | 95 | 1020.8 |
| 20260906092525 | 52 | 329 | 9.0 | 15.0 | 0.01 | 0.65 | 0.30 | 95 | 1020.6 |
| 20260906092026 | 52 | 304 | 10.0 | 16.0 | 0.01 | 0.65 | 0.30 | 95 | 1020.6 |
| 20260906091522 | 52 | 335 | 10.0 | 19.0 | 0.01 | 0.65 | 0.30 | 95 | 1020.6 |
| 20260906091022 | 52 | 324 | 11.0 | 20.0 | 0.01 | 0.65 | 0.30 | 95 | 1020.5 |
| 20260906090523 | 52 | 342 | 15.0 | 20.0 | 0.01 | 0.65 | 0.30 | 95 | 1020.4 |
| 20260906090021 | 52 | 9 | 11.0 | 18.0 | 0.01 | 0.65 | 0.30 | 95 | 1020.4 |
| 20260906085520 | 52 | 351 | 14.0 | 18.0 | 0.02 | 0.65 | 0.30 | 95 | 1020.4 |
| 20260906085020 | 52 | 31 | 11.0 | 20.0 | 0.03 | 0.65 | 0.30 | 94 | 1020.5 |
| 20260906084519 | 53 | 337 | 12.0 | 21.0 | 0.06 | 0.65 | 0.30 | 95 | 1020.4 |
| 20260906084019 | 53 | 332 | 12.0 | 22.0 | 0.08 | 0.65 | 0.30 | 94 | 1020.2 |
| 20260906083521 | 53 | 360 | 14.0 | 22.0 | 0.08 | 0.64 | 0.28 | 95 | 1020.0 |
| 20260906083016 | 53 | 5 | 15.0 | 20.0 | 0.09 | 0.64 | 0.28 | 94 | 1020.3 |
| 20260906082515 | 53 | 44 | 12.0 | 18.0 | 0.10 | 0.64 | 0.28 | 94 | 1020.3 |
| 20260906082014 | 53 | 5 | 12.0 | 18.0 | 0.11 | 0.64 | 0.28 | 94 | 1020.3 |
| 20260906081534 | 53 | 18 | 11.0 | 17.0 | 0.13 | 0.64 | 0.28 | 94 | 1020.6 |
| 20260906081013 | 53 | 340 | 8.0 | 13.0 | 0.14 | 0.64 | 0.28 | 94 | 1021.4 |
| 20260906080515 | 53 | 5 | 8.0 | 13.0 | 0.15 | 0.64 | 0.28 | 94 | 1021.5 |
| 20260906080010 | 53 | 360 | 9.0 | 13.0 | 0.16 | 0.64 | 0.28 | 94 | 1021.7 |
| 20260906075512 | 53 | 342 | 7.0 | 12.0 | 0.16 | 0.63 | 0.28 | 94 | 1022.0 |
| 20260906075010 | 53 | 341 | 8.0 | 10.0 | 0.16 | 0.62 | 0.27 | 94 | 1022.1 |
| 20260906074509 | 53 | 315 | 3.0 | 10.0 | 0.16 | 0.59 | 0.24 | 94 | 1022.6 |
| 20260906074008 | 53 | 5 | 5.0 | 10.0 | 0.16 | 0.56 | 0.22 | 94 | 1022.4 |
| 20260906073507 | 53 | 5 | 6.0 | 15.0 | 0.16 | 0.56 | 0.21 | 94 | 1022.3 |
| 20260906073008 | 53 | 9 | 7.0 | 15.0 | 0.15 | 0.55 | 0.20 | 94 | 1022.0 |
| 20260906072507 | 53 | 360 | 8.0 | 14.0 | 0.15 | 0.54 | 0.19 | 94 | 1021.9 |
| 20260906072007 | 53 | 27 | 8.0 | 14.0 | 0.15 | 0.53 | 0.18 | 94 | 1022.2 |
| 20260906071506 | 53 | 5 | 9.0 | 16.0 | 0.13 | 0.51 | 0.16 | 94 | 1022.4 |
| 20260906071005 | 53 | 340 | 8.0 | 16.0 | 0.12 | 0.50 | 0.15 | 94 | 1022.4 |
| 20260906070505 | 53 | 355 | 10.0 | 14.0 | 0.12 | 0.49 | 0.14 | 94 | 1022.4 |
| 20260906070004 | 53 | 320 | 9.0 | 14.0 | 0.12 | 0.48 | 0.13 | 94 | 1022.5 |
| 20260906065503 | 53 | 331 | 9.0 | 13.0 | 0.13 | 0.47 | 0.12 | 94 | 1022.8 |
| 20260906065003 | 53 | 315 | 9.0 | 13.0 | 0.12 | 0.45 | 0.10 | 93 | 1022.7 |
| 20260906064501 | 53 | 325 | 10.0 | 13.0 | 0.10 | 0.43 | 0.08 | 93 | 1022.6 |
| 20260906064002 | 53 | 326 | 8.0 | 12.0 | 0.10 | 0.41 | 0.06 | 93 | 1022.5 |
| 20260906063602 | 53 | 360 | 8.0 | 12.0 | 0.11 | 0.40 | 0.05 | 93 | 1022.6 |
| 20260906063059 | 53 | 23 | 8.0 | 14.0 | 0.14 | 0.40 | 0.05 | 92 | 1022.5 |
| 20260906062559 | 53 | 349 | 8.0 | 14.0 | 0.14 | 0.39 | 0.04 | 92 | 1022.6 |
| 20260906062102 | 53 | 15 | 8.0 | 16.0 | 0.15 | 0.38 | 0.03 | 92 | 1022.6 |
| 20260906061557 | 54 | 11 | 9.0 | 16.0 | 0.17 | 0.38 | 0.03 | 92 | 1022.3 |
| 20260906061057 | 54 | 5 | 10.0 | 16.0 | 0.20 | 0.38 | 0.03 | 92 | 1022.0 |
| 20260906060559 | 54 | 5 | 11.0 | 16.0 | 0.21 | 0.37 | 0.02 | 92 | 1022.1 |
| 20260906060055 | 54 | 5 | 9.0 | 13.0 | 0.22 | 0.36 | 0.01 | 92 | 1022.6 |
| 20260906055558 | 54 | 360 | 7.0 | 15.0 | 0.22 | 0.36 | 0.35 | 92 | 1022.7 |
| 20260906055157 | 54 | 351 | 10.0 | 15.0 | 0.22 | 0.35 | 0.34 | 92 | 1022.7 |
| 20260906054555 | 54 | 332 | 8.0 | 14.0 | 0.22 | 0.34 | 0.33 | 92 | 1022.7 |
| 20260906054054 | 54 | 333 | 8.0 | 13.0 | 0.21 | 0.32 | 0.31 | 92 | 1022.7 |
| 20260906053554 | 54 | 321 | 7.0 | 11.0 | 0.18 | 0.28 | 0.28 | 92 | 1023.3 |
| 20260906053053 | 54 | 275 | 7.0 | 11.0 | 0.16 | 0.27 | 0.26 | 92 | 1023.8 |
| 20260906052554 | 54 | 283 | 7.0 | 10.0 | 0.15 | 0.25 | 0.24 | 91 | 1023.6 |
| 20260906052051 | 54 | 288 | 5.0 | 10.0 | 0.14 | 0.24 | 0.23 | 91 | 1023.6 |
| 20260906051552 | 54 | 312 | 7.0 | 10.0 | 0.11 | 0.21 | 0.20 | 90 | 1023.6 |
| 20260906051055 | 55 | 319 | 5.0 | 8.0 | 0.09 | 0.19 | 0.18 | 90 | 1023.6 |
| 20260906050551 | 55 | 317 | 4.0 | 9.0 | 0.06 | 0.16 | 0.15 | 89 | 1023.5 |
| 20260906050100 | 55 | 343 | 4.0 | 9.0 | 0.05 | 0.15 | 0.14 | 89 | 1023.4 |
| 20260906045548 | 55 | 336 | 5.0 | 10.0 | 0.04 | 0.17 | 0.13 | 89 | 1023.3 |
| 20260906045047 | 55 | 5 | 6.0 | 10.0 | 0.02 | 0.15 | 0.11 | 88 | 1023.3 |
| 20260906044546 | 55 | 311 | 7.0 | 11.0 | 0.02 | 0.15 | 0.11 | 88 | 1023.1 |
| 20260906044046 | 55 | 348 | 8.0 | 14.0 | 0.01 | 0.14 | 0.10 | 88 | 1022.9 |
| 20260906043543 | 55 | 327 | 9.0 | 15.0 | 0.01 | 0.14 | 0.10 | 87 | 1022.4 |
| 20260906043047 | 55 | 319 | 10.0 | 14.0 | 0.01 | 0.14 | 0.10 | 87 | 1022.2 |
| 20260906042542 | 55 | 327 | 9.0 | 14.0 | 0.00 | 0.13 | 0.09 | 86 | 1022.1 |
| 20260906042042 | 56 | 323 | 8.0 | 16.0 | 0.00 | 0.13 | 0.09 | 86 | 1022.2 |
| 20260906041546 | 56 | 334 | 10.0 | 16.0 | 0.01 | 0.13 | 0.09 | 85 | 1022.4 |
| 20260906041041 | 56 | 321 | 9.0 | 18.0 | 0.02 | 0.13 | 0.09 | 85 | 1022.3 |
| 20260906040544 | 56 | 348 | 13.0 | 18.0 | 0.02 | 0.13 | 0.09 | 85 | 1022.2 |
| 20260906040041 | 56 | 322 | 12.0 | 19.0 | 0.02 | 0.13 | 0.09 | 84 | 1022.1 |
| 20260906035544 | 56 | 329 | 12.0 | 19.0 | 0.02 | 0.13 | 0.09 | 84 | 1021.9 |
| 20260906035040 | 56 | 315 | 11.0 | 18.0 | 0.02 | 0.13 | 0.09 | 83 | 1022.0 |
| 20260906034545 | 56 | 335 | 10.0 | 23.0 | 0.02 | 0.13 | 0.09 | 83 | 1022.0 |
| 20260906034039 | 57 | 325 | 10.0 | 23.0 | 0.02 | 0.13 | 0.09 | 82 | 1022.0 |
| 20260906033538 | 56 | 342 | 7.0 | 14.0 | 0.02 | 0.13 | 0.09 | 82 | 1021.8 |
| 20260906033040 | 56 | 80 | 7.0 | 16.0 | 0.02 | 0.13 | 0.09 | 82 | 1022.0 |
| 20260906032538 | 57 | 5 | 10.0 | 19.0 | 0.02 | 0.13 | 0.09 | 81 | 1021.9 |
| 20260906032038 | 57 | 331 | 10.0 | 14.0 | 0.02 | 0.13 | 0.09 | 81 | 1021.9 |
| 20260906031547 | 57 | 336 | 7.0 | 12.0 | 0.01 | 0.12 | 0.08 | 79 | 1021.9 |
| 20260906031036 | 58 | 325 | 8.0 | 14.0 | 0.00 | 0.11 | 0.07 | 78 | 1021.8 |
| 20260906030537 | 58 | 342 | 8.0 | 14.0 | 0.00 | 0.11 | 0.07 | 77 | 1021.8 |
| 20260906030035 | 58 | 342 | 8.0 | 13.0 | 0.00 | 0.11 | 0.07 | 77 | 1021.8 |
| 20260906025535 | 58 | 313 | 9.0 | 16.0 | 0.00 | 0.11 | 0.07 | 76 | 1021.7 |
| 20260906025034 | 59 | 311 | 9.0 | 16.0 | 0.00 | 0.11 | 0.07 | 75 | 1021.4 |
| 20260906024532 | 59 | 360 | 10.0 | 15.0 | 0.00 | 0.11 | 0.07 | 73 | 1021.2 |
| 20260906024032 | 59 | 345 | 10.0 | 14.0 | 0.00 | 0.11 | 0.07 | 73 | 1021.0 |
| 20260906023532 | 59 | 336 | 9.0 | 16.0 | 0.00 | 0.11 | 0.07 | 73 | 1021.0 |
| 20260906023032 | 59 | 15 | 10.0 | 16.0 | 0.00 | 0.11 | 0.07 | 73 | 1020.9 |
| 20260906022531 | 59 | 346 | 9.0 | 14.0 | 0.00 | 0.11 | 0.07 | 74 | 1020.8 |
| 20260906022036 | 59 | 333 | 10.0 | 14.0 | 0.00 | 0.11 | 0.07 | 73 | 1020.6 |
| 20260906021532 | 60 | 338 | 9.0 | 15.0 | 0.00 | 0.11 | 0.07 | 72 | 1020.5 |
| 20260906021031 | 60 | 360 | 11.0 | 17.0 | 0.00 | 0.11 | 0.07 | 72 | 1020.3 |
| 20260906020531 | 60 | 341 | 11.0 | 17.0 | 0.00 | 0.11 | 0.07 | 72 | 1020.2 |
| 20260906020043 | 60 | 337 | 11.0 | 15.0 | 0.00 | 0.11 | 0.07 | 72 | 1020.3 |
| 20260906015531 | 60 | 335 | 10.0 | 15.0 | 0.00 | 0.11 | 0.07 | 71 | 1020.4 |
| 20260906015031 | 60 | 321 | 11.0 | 16.0 | 0.00 | 0.11 | 0.07 | 71 | 1020.3 |
| 20260906014534 | 61 | 326 | 9.0 | 14.0 | 0.00 | 0.11 | 0.07 | 71 | 1020.4 |
| 20260906014030 | 61 | 321 | 9.0 | 17.0 | 0.00 | 0.11 | 0.07 | 70 | 1020.5 |
| 20260906013530 | 61 | 346 | 10.0 | 17.0 | 0.00 | 0.11 | 0.07 | 70 | 1020.4 |
| 20260906013030 | 61 | 336 | 11.0 | 20.0 | 0.00 | 0.11 | 0.07 | 69 | 1020.4 |
| 20260906012529 | 61 | 341 | 13.0 | 18.0 | 0.00 | 0.11 | 0.07 | 69 | 1020.3 |
| 20260906012030 | 62 | 336 | 11.0 | 17.0 | 0.00 | 0.11 | 0.07 | 68 | 1020.2 |
| 20260906011529 | 62 | 338 | 11.0 | 18.0 | 0.00 | 0.11 | 0.07 | 69 | 1020.0 |
| 20260906011032 | 62 | 355 | 12.0 | 18.0 | 0.00 | 0.11 | 0.07 | 68 | 1020.0 |
| 20260906010529 | 62 | 360 | 11.0 | 19.0 | 0.00 | 0.11 | 0.07 | 67 | 1020.1 |
| 20260906010029 | 63 | 5 | 11.0 | 19.0 | 0.00 | 0.11 | 0.07 | 66 | 1019.9 |
| 20260906005528 | 64 | 338 | 11.0 | 16.0 | 0.00 | 0.11 | 0.07 | 65 | 1019.8 |
| 20260906005028 | 64 | 334 | 11.0 | 16.0 | 0.00 | 0.11 | 0.07 | 65 | 1019.8 |
| 20260906004528 | 64 | 346 | 10.0 | 15.0 | 0.00 | 0.11 | 0.07 | 65 | 1019.9 |
| 20260906004028 | 64 | 312 | 9.0 | 17.0 | 0.00 | 0.11 | 0.07 | 65 | 1020.1 |
| 20260906003527 | 64 | 339 | 9.0 | 17.0 | 0.00 | 0.11 | 0.07 | 65 | 1020.0 |
| 20260906003029 | 64 | 355 | 10.0 | 17.0 | 0.00 | 0.11 | 0.07 | 64 | 1019.9 |
| 20260906002528 | 65 | 305 | 10.0 | 15.0 | 0.00 | 0.11 | 0.07 | 64 | 1019.9 |
| 20260906002029 | 65 | 348 | 11.0 | 17.0 | 0.00 | 0.11 | 0.07 | 64 | 1019.9 |
| 20260906001531 | 65 | 341 | 10.0 | 17.0 | 0.00 | 0.11 | 0.07 | 64 | 1019.9 |
| 20260906001026 | 65 | 5 | 10.0 | 14.0 | 0.00 | 0.11 | 0.07 | 64 | 1020.0 |
| 20260906000527 | 65 | 348 | 9.0 | 14.0 | 0.00 | 0.11 | 0.07 | 64 | 1020.0 |
| 20260906000027 | 65 | 360 | 9.0 | 13.0 | 0.00 | 0.11 | 0.07 | 65 | 1019.9 |
| 20260905235527 | 65 | 350 | 7.0 | 13.0 | 0.00 | 0.11 | 0.07 | 64 | 1019.9 |
| 20260905235028 | 65 | 331 | 8.0 | 14.0 | 0.00 | 0.11 | 0.07 | 65 | 1020.0 |
| 20260905234527 | 65 | 338 | 10.0 | 14.0 | 0.00 | 0.11 | 0.07 | 64 | 1020.0 |
| 20260905234031 | 65 | 13 | 9.0 | 13.0 | 0.00 | 0.11 | 0.07 | 65 | 1020.0 |
| 20260905233526 | 65 | 15 | 10.0 | 12.0 | 0.00 | 0.11 | 0.07 | 65 | 1020.0 |
| 20260905233031 | 65 | 360 | 8.0 | 13.0 | 0.00 | 0.11 | 0.07 | 65 | 1019.9 |